Location: Twillingate Astronomical Observatory
(49.6173°N, 54.7580°W)
Time: 19:52:48
(UTC-02:-30)

Amateur Radio Satellites - All Passes

Search period start: 27 March 2017 19:22
Search period end: 28 March 2017 19:22
Location: Twillingate Astronomical Observatory, 49.6173°N, 54.7580°W

Satellite Date Start Highest point End Downlink Frequencies (MHz)
Time Altitude Azimuth
XW-2C 27 Mar 19:24:00 19:26:55 21° 267° (W) 19:29:51 145.795 - 145.815
UWE-3 27 Mar 19:24:25 19:27:53 21° 62° (ENE) 19:31:20 435.000/436.395/437.385
O/OREOS (USA 219) 27 Mar 19:26:24 19:29:31 18° 316° (NW) 19:32:42 437.305
AAUSAT CUBESAT 2 27 Mar 19:38:02 19:41:30 27° 66° (ENE) 19:45:00 437.432
M-CUBED/EXP-1 PRIME 27 Mar 19:45:41 19:50:16 59° 107° (ESE) 19:54:54 437.505
STARS 27 Mar 19:48:41 19:52:00 21° 300° (WNW) 19:55:17 437.465
Oscar 11 27 Mar 19:53:34 19:56:34 19° 61° (ENE) 19:59:35 .
SEEDS 27 Mar 19:56:13 20:00:22 78° 75° (ENE) 20:04:33 437.485
YUBILEINY 27 Mar 19:58:20 20:06:51 62° 268° (W) 20:15:23 435.215
CUBEBUG 2 27 Mar 19:59:00 20:03:41 62° 72° (ENE) 20:08:21 437.445
ZACube-1 27 Mar 20:02:09 20:06:00 28° 65° (ENE) 20:09:48 437.345
CUTE 1.7 + AOD 2 27 Mar 20:05:21 20:09:30 58° 260° (W) 20:13:40 437.475
HO-68 27 Mar 20:09:15 20:16:19 62° 257° (WSW) 20:23:25 435.675
SO-50 27 Mar 20:15:15 20:17:23 13° 8° (N) 20:19:29 436.795
STRAND 1 27 Mar 20:18:09 20:23:05 45° 99° (E) 20:27:57 437.568
Tancredo 1 27 Mar 20:20:43 20:21:19 10° 135° (SE) 20:21:56 437.200
RS-15 27 Mar 20:22:28 20:34:43 58° 35° (NE) 20:46:31 29.354- 29.394
PCSat 27 Mar 20:25:32 20:29:12 19° 254° (WSW) 20:32:52 145.827
ISS 27 Mar 20:25:39 20:26:33 11° 135° (SE) 20:27:26 437.550
CUTE-I 27 Mar 20:27:34 20:29:13 11° 276° (W) 20:30:52 437.470
AO-73 27 Mar 20:29:20 20:33:37 44° 70° (ENE) 20:37:51 145.935
XW-2A 27 Mar 20:30:45 20:33:21 20° 266° (W) 20:36:00 145.665 - 145.685
DELFI C3 27 Mar 20:47:44 20:50:33 19° 63° (ENE) 20:53:23 145.870
AO-85 27 Mar 20:50:48 20:54:21 25° 118° (ESE) 20:57:45 145.980
UWE-3 27 Mar 20:59:25 21:04:00 57° 260° (W) 21:08:32 435.000/436.395/437.385
AAUSAT CUBESAT 2 27 Mar 21:13:10 21:16:54 33° 264° (W) 21:20:38 437.432
M-CUBED/EXP-1 PRIME 27 Mar 21:20:44 21:24:22 23° 304° (NW) 21:28:02 437.505
Oscar 11 27 Mar 21:28:04 21:32:19 58° 259° (W) 21:36:36 .
SEEDS 27 Mar 21:34:55 21:36:36 12° 273° (W) 21:38:18 437.485
CUBEBUG 2 27 Mar 21:37:20 21:40:41 19° 270° (W) 21:44:02 437.445
ZACube-1 27 Mar 21:37:54 21:42:09 39° 263° (W) 21:46:21 437.345
Tancredo 1 27 Mar 21:53:46 21:56:50 50° 153° (SSE) 21:59:56 437.200
SO-50 27 Mar 21:55:29 21:59:21 26° 32° (NNE) 22:03:10 436.795
STRAND 1 27 Mar 21:57:40 22:02:05 30° 298° (WNW) 22:06:28 437.568
YUBILEINY 27 Mar 21:57:47 22:01:46 14° 291° (WNW) 22:05:44 435.215
ISS 27 Mar 21:59:13 22:02:24 51° 152° (SSE) 22:05:36 437.550
LO-87 27 Mar 22:00:44 22:02:50 15° 61° (ENE) 22:04:57 145.935 - 145.965
HO-68 27 Mar 22:02:50 22:05:33 12° 278° (W) 22:08:16 435.675
AO-73 27 Mar 22:06:23 22:10:02 24° 267° (W) 22:13:38 145.935
PRISM 27 Mar 22:15:23 22:19:02 28° 96° (E) 22:22:39 437.425
DELFI C3 27 Mar 22:21:16 22:25:03 46° 261° (W) 22:28:52 145.870
ESTCUBE 1 27 Mar 22:23:31 22:26:40 19° 60° (ENE) 22:29:50 437.505/2401.250
BEESAT 3 27 Mar 22:28:23 22:31:38 25° 117° (ESE) 22:34:58 437.485
AO-85 27 Mar 22:30:24 22:34:34 49° 316° (NW) 22:38:30 145.980
RS-15 27 Mar 22:35:35 22:47:37 63° 242° (WSW) 22:59:10 29.354- 29.394
BEESAT 2 27 Mar 22:47:34 22:50:14 17° 113° (ESE) 22:52:55 435.950
FO-29 27 Mar 23:10:58 23:16:35 37° 94° (E) 23:21:38 435.910
TIGRISAT 27 Mar 23:16:20 23:20:45 59° 101° (E) 23:25:01 435.000
UNISAT 6 27 Mar 23:26:54 23:31:23 81° 104° (ESE) 23:35:43 437.425
VELOX 1 27 Mar 23:29:41 23:33:23 27° 63° (ENE) 23:37:08 145.980
Tancredo 1 27 Mar 23:29:48 23:32:58 62° 353° (N) 23:36:08 437.200
LO-87 27 Mar 23:32:22 23:35:54 54° 260° (W) 23:39:30 145.935 - 145.965
ISS 27 Mar 23:35:37 23:38:52 63° 352° (N) 23:42:09 437.550
SO-50 27 Mar 23:35:43 23:40:13 69° 234° (SW) 23:44:40 436.795
UKube-1 27 Mar 23:41:55 23:43:56 13° 56° (NE) 23:45:57 .
EO-79 27 Mar 23:42:28 23:43:59 12° 87° (E) 23:45:29 145.935-145.965
PRISM 27 Mar 23:50:35 23:54:19 33° 294° (WNW) 23:58:03 437.425
ESTCUBE 1 27 Mar 23:58:38 00:03:04 61° 259° (W) 00:07:32 437.505/2401.250
SPROUT 28 Mar 00:03:24 00:07:30 46° 70° (ENE) 00:11:39 437.525
AIST 2D 28 Mar 00:04:44 00:07:51 29° 96° (E) 00:10:56 435.315
BEESAT 3 28 Mar 00:05:15 00:09:03 45° 317° (NW) 00:12:56 437.485
POLYITAN 1 28 Mar 00:09:36 00:12:55 22° 92° (E) 00:16:11 437.675
AO-85 28 Mar 00:13:37 00:15:51 14° 337° (NNW) 00:18:03 145.980
QB50P2 28 Mar 00:14:07 00:17:42 26° 94° (E) 00:21:14 145.880/145.840
50 SAT 28 Mar 00:21:38 00:24:58 47° 71° (ENE) 00:28:19 437.505
BEESAT 2 28 Mar 00:23:37 00:27:34 64° 312° (NW) 00:31:36 435.950
DUCHIFAT 1 28 Mar 00:24:13 00:27:45 25° 94° (E) 00:31:14 145.980
O/OREOS (USA 219) 28 Mar 00:34:05 00:35:21 11° 35° (NE) 00:36:38 437.305
BUGSAT 1 28 Mar 00:36:10 00:37:56 12° 87° (E) 00:39:40 437.445
DX 1 28 Mar 00:37:48 00:42:02 53° 70° (ENE) 00:46:18 434.975-435.025
RS-15 28 Mar 00:50:33 00:57:21 17° 267° (W) 01:04:02 29.354- 29.394
TIGRISAT 28 Mar 00:53:53 00:57:01 19° 300° (WNW) 01:00:05 435.000
FO-29 28 Mar 00:56:01 01:01:47 41° 297° (WNW) 01:06:56 435.910
UNISAT 6 28 Mar 01:04:58 01:07:29 15° 303° (WNW) 01:09:57 437.425
VELOX 1 28 Mar 01:05:33 01:09:42 39° 262° (W) 01:13:54 145.980
Tancredo 1 28 Mar 01:06:05 01:09:17 71° 12° (NNE) 01:12:29 437.200
NANOSAT C BR1 28 Mar 01:10:36 01:14:52 80° 104° (ESE) 01:19:04 145.865
ISS 28 Mar 01:12:16 01:15:34 72° 14° (NNE) 01:18:51 437.550
UKube-1 28 Mar 01:14:59 01:19:19 88° 66° (ENE) 01:23:40 .
EO-79 28 Mar 01:16:05 01:20:22 84° 286° (WNW) 01:24:35 145.935-145.965
SO-50 28 Mar 01:19:19 01:19:49 10° 252° (WSW) 01:20:19 436.795
Oscar 19 28 Mar 01:26:06 01:29:10 16° 88° (E) 01:32:14 437.125/150
AIST 2D 28 Mar 01:38:11 01:40:58 22° 294° (WNW) 01:43:43 435.315
SPROUT 28 Mar 01:40:19 01:43:39 22° 268° (W) 01:47:00 437.525
POLYITAN 1 28 Mar 01:44:52 01:48:55 43° 291° (WNW) 01:52:55 437.675
BEESAT 3 28 Mar 01:45:33 01:47:38 14° 339° (NNW) 01:49:44 437.485
QB50P2 28 Mar 01:49:39 01:53:35 37° 293° (WNW) 01:57:29 145.880/145.840
Gurwin Techsat 1B 28 Mar 01:51:37 01:54:50 16° 87° (E) 01:58:02 435.225
BEESAT 28 Mar 01:53:06 01:56:53 24° 61° (ENE) 02:00:41 436.000
50 SAT 28 Mar 01:56:27 01:58:17 14° 269° (W) 02:00:08 437.505
DUCHIFAT 1 28 Mar 01:59:37 02:03:31 37° 292° (WNW) 02:07:24 145.980
MOZHAYETS 4 28 Mar 01:59:43 02:01:32 12° 55° (NE) 02:03:22
BEESAT 2 28 Mar 02:03:30 02:06:07 16° 334° (NNW) 02:08:44 435.950
BUGSAT 1 28 Mar 02:09:39 02:13:52 78° 285° (WNW) 02:17:59 437.445
ITUPSAT 1 28 Mar 02:09:46 02:13:59 32° 64° (ENE) 02:18:12 437.325
O/OREOS (USA 219) 28 Mar 02:11:28 02:15:58 48° 57° (ENE) 02:20:25 437.305
DX 1 28 Mar 02:15:24 02:18:32 19° 268° (W) 02:21:42 434.975-435.025
Tancredo 1 28 Mar 02:42:20 02:45:18 35° 211° (SSW) 02:48:15 437.200
NANOSAT C BR1 28 Mar 02:47:45 02:50:00 14° 302° (WNW) 02:52:14 145.865
ISS 28 Mar 02:48:51 02:51:55 36° 211° (SSW) 02:54:59 437.550
EO-79 28 Mar 02:53:47 02:55:26 12° 304° (NW) 02:57:04 145.935-145.965
UKube-1 28 Mar 02:54:33 02:55:59 11° 273° (W) 02:57:24 .
Oscar 19 28 Mar 03:03:58 03:09:10 84° 286° (WNW) 03:14:21 437.125/150
KKS-1 28 Mar 03:06:39 03:08:49 13° 55° (NE) 03:10:58 437.445
ITAMSAT 1 28 Mar 03:16:13 03:19:18 16° 88° (E) 03:22:22 435.822/435.867
AO-7 28 Mar 03:28:01 03:34:10 22° 89° (E) 03:40:17 .
BEESAT 28 Mar 03:29:41 03:34:22 53° 260° (W) 03:39:04 436.000
Gurwin Techsat 1B 28 Mar 03:30:07 03:35:29 85° 288° (WNW) 03:40:49 435.225
MOZHAYETS 4 28 Mar 03:33:21 03:37:56 76° 73° (ENE) 03:42:32
AO-85 28 Mar 03:37:21 03:40:02 17° 28° (NNE) 03:42:43 145.980
STARS 28 Mar 03:38:46 03:40:47 13° 55° (NE) 03:42:48 437.465
ITUPSAT 1 28 Mar 03:47:16 03:51:44 38° 262° (W) 03:56:13 437.325
BUGSAT 1 28 Mar 03:47:16 03:48:28 11° 305° (NW) 03:49:40 437.445
O/OREOS (USA 219) 28 Mar 03:51:24 03:55:06 24° 257° (WSW) 03:58:48 437.305
CUBESAT XI-V 28 Mar 04:29:44 04:34:10 51° 70° (ENE) 04:38:38 437.345
KKS-1 28 Mar 04:40:12 04:44:41 85° 72° (ENE) 04:49:12 437.445
Oscar 19 28 Mar 04:44:42 04:47:45 16° 306° (NW) 04:50:46 437.125/150
ITAMSAT 1 28 Mar 04:54:13 04:59:28 84° 287° (WNW) 05:04:39 435.822/435.867
M-CUBED/EXP-1 PRIME 28 Mar 05:02:47 05:05:37 19° 53° (NE) 05:08:35 437.505
BEESAT 3 28 Mar 05:03:33 05:06:12 17° 27° (NNE) 05:08:51 437.485
Gurwin Techsat 1B 28 Mar 05:11:25 05:14:41 17° 306° (NW) 05:17:57 435.225
STARS 28 Mar 05:11:59 05:16:26 83° 71° (ENE) 05:20:54 437.465
MOZHAYETS 4 28 Mar 05:13:05 05:15:38 15° 272° (W) 05:18:12
AO-85 28 Mar 05:17:07 05:21:03 79° 50° (NE) 05:25:02 145.980
AO-7 28 Mar 05:19:44 05:28:06 87° 110° (ESE) 05:36:25 .
BEESAT 2 28 Mar 05:22:48 05:25:02 14° 22° (NNE) 05:27:17 435.950
STRAND 1 28 Mar 06:01:23 06:04:49 18° 56° (NE) 06:08:15 437.568
CUBESAT XI-V 28 Mar 06:08:20 06:11:50 21° 269° (W) 06:15:23 437.345
XW-2F 28 Mar 06:10:44 06:10:58 10° 87° (E) 06:11:12 145.980 - 146.000
LilacSat-2 28 Mar 06:13:48 06:15:25 12° 88° (E) 06:17:02 437.200
KKS-1 28 Mar 06:19:57 06:21:52 12° 273° (W) 06:23:48 437.445
NUDT-PHONESAT 28 Mar 06:29:44 06:31:44 14° 90° (E) 06:33:43 437.300
ITAMSAT 1 28 Mar 06:35:04 06:38:11 16° 307° (NW) 06:41:16 435.822/435.867
XW-2D 28 Mar 06:35:28 06:38:20 20° 93° (E) 06:41:11 145.860 - 145.880
M-CUBED/EXP-1 PRIME 28 Mar 06:35:53 06:39:39 56° 254° (WSW) 06:43:44 437.505
KAITUO 1B 28 Mar 06:38:40 06:41:14 18° 92° (E) 06:43:47 145.475/437.950
BEESAT 3 28 Mar 06:40:31 06:44:33 66° 48° (NE) 06:48:32 437.485
XW-2B 28 Mar 06:41:20 06:44:21 23° 94° (E) 06:47:22 145.730 - 145.750
XW-2C 28 Mar 06:51:23 06:54:42 29° 96° (E) 06:58:00 145.795 - 145.815
STARS 28 Mar 06:51:24 06:53:23 13° 272° (W) 06:55:21 437.465
NO-84 28 Mar 06:53:12 06:55:18 19° 136° (SE) 06:57:24 435.350 FM
CUTE-I 28 Mar 06:55:36 07:00:26 33° 95° (E) 07:05:14 437.470
AO-85 28 Mar 06:58:57 07:00:54 13° 248° (WSW) 07:02:52 145.980
BEESAT 2 28 Mar 06:59:48 07:03:46 47° 44° (NE) 07:07:42 435.950
DOVE 4 28 Mar 07:00:05 07:05:20 56° 99° (E) 07:10:29 437.250
YUBILEINY 28 Mar 07:08:52 07:16:26 35° 83° (E) 07:24:00 435.215
AO-7 28 Mar 07:13:15 07:20:02 29° 312° (NW) 07:26:49 .
HO-68 28 Mar 07:32:45 07:38:06 22° 89° (E) 07:43:25 435.675
STRAND 1 28 Mar 07:38:13 07:43:23 83° 255° (WSW) 07:48:34 437.568
XW-2F 28 Mar 07:41:54 07:45:39 77° 285° (WNW) 07:49:22 145.980 - 146.000
LilacSat-2 28 Mar 07:46:23 07:50:08 64° 286° (WNW) 07:53:51 437.200
CUTE 1.7 + AOD 2 28 Mar 07:46:29 07:49:24 18° 90° (E) 07:52:18 437.475
XW-2A 28 Mar 07:48:07 07:50:33 18° 93° (E) 07:52:56 145.665 - 145.685
NUDT-PHONESAT 28 Mar 08:02:23 08:06:00 53° 288° (WNW) 08:09:35 437.300
XW-2D 28 Mar 08:09:11 08:12:40 36° 291° (WNW) 08:16:07 145.860 - 145.880
KAITUO 1B 28 Mar 08:11:57 08:15:28 41° 290° (WNW) 08:18:57 145.475/437.950
XW-2B 28 Mar 08:15:14 08:18:38 33° 292° (WNW) 08:22:00 145.730 - 145.750
BEESAT 3 28 Mar 08:19:03 08:21:42 17° 247° (WSW) 08:24:21 437.485
XW-2C 28 Mar 08:25:42 08:28:51 26° 294° (WNW) 08:31:59 145.795 - 145.815
NO-84 28 Mar 08:29:43 08:32:32 64° 334° (NNW) 08:35:25 435.350 FM
CUTE-I 28 Mar 08:35:33 08:40:35 42° 295° (WNW) 08:45:35 437.470
BEESAT 2 28 Mar 08:37:59 08:41:20 25° 243° (WSW) 08:44:39 435.950
DOVE 4 28 Mar 08:38:18 08:42:40 27° 298° (WNW) 08:47:01 437.250
TIGRISAT 28 Mar 08:44:45 08:47:11 14° 56° (ENE) 08:49:36 435.000
UWE-3 28 Mar 08:45:20 08:48:40 21° 91° (E) 08:51:56 435.000/436.395/437.385
AAUSAT CUBESAT 2 28 Mar 08:50:35 08:54:09 27° 94° (E) 08:57:42 437.432
UNISAT 6 28 Mar 08:54:37 08:57:45 18° 59° (ENE) 09:00:53 437.425
YUBILEINY 28 Mar 09:04:05 09:12:45 64° 285° (WNW) 09:21:26 435.215
AO-7 28 Mar 09:08:17 09:10:07 11° 338° (NNW) 09:11:57 .
PRISM 28 Mar 09:08:34 09:12:19 36° 67° (ENE) 09:16:05 437.425
SEEDS 28 Mar 09:11:03 09:15:15 84° 100° (E) 09:19:28 437.485
Oscar 11 28 Mar 09:11:28 09:14:35 19° 91° (E) 09:17:41 .
HO-68 28 Mar 09:19:29 09:26:42 86° 289° (WNW) 09:33:53 435.675
XW-2A 28 Mar 09:20:20 09:23:26 33° 291° (WNW) 09:26:29 145.665 - 145.685
STRAND 1 28 Mar 09:21:02 09:23:22 13° 274° (W) 09:25:41 437.568
CUTE 1.7 + AOD 2 28 Mar 09:21:26 09:25:33 53° 289° (WNW) 09:29:40 437.475
ZACube-1 28 Mar 09:21:50 09:25:33 29° 94° (E) 09:29:12 437.345
CUBEBUG 2 28 Mar 09:22:07 09:26:35 76° 103° (ESE) 09:30:52 437.445
FO-29 28 Mar 09:26:10 09:32:53 35° 60° (ENE) 09:39:07 435.910
PCSat 28 Mar 09:27:25 09:32:05 30° 112° (ESE) 09:36:46 145.827
AO-73 28 Mar 09:48:56 09:53:04 49° 99° (E) 09:57:05 145.935
DELFI C3 28 Mar 09:54:40 09:57:16 16° 90° (E) 09:59:51 145.870
NO-84 28 Mar 10:07:53 10:10:26 27° 356° (N) 10:13:04 435.350 FM
TIGRISAT 28 Mar 10:18:30 10:23:12 86° 76° (ENE) 10:27:52 435.000
UWE-3 28 Mar 10:21:14 10:25:23 44° 291° (WNW) 10:29:24 435.000/436.395/437.385
AAUSAT CUBESAT 2 28 Mar 10:25:54 10:29:39 34° 292° (WNW) 10:33:24 437.432
UNISAT 6 28 Mar 10:29:18 10:33:59 71° 258° (WSW) 10:38:37 437.425
NANOSAT C BR1 28 Mar 10:33:12 10:35:30 14° 58° (ENE) 10:37:48 145.865
EO-79 28 Mar 10:38:24 10:41:11 17° 59° (ENE) 10:43:58 145.935-145.965
AIST 2D 28 Mar 10:43:29 10:46:18 23° 66° (ENE) 10:49:07 435.315
PRISM 28 Mar 10:44:20 10:47:42 25° 266° (W) 10:51:06 437.425
Oscar 11 28 Mar 10:46:50 10:51:01 51° 289° (WNW) 10:55:11 .
SEEDS 28 Mar 10:48:20 10:50:22 13° 302° (WNW) 10:52:23 437.485
ZACube-1 28 Mar 10:58:04 11:01:51 32° 294° (WNW) 11:05:34 437.345
RS-15 28 Mar 10:58:13 11:04:23 16° 92° (E) 11:10:37 29.354- 29.394
CUBEBUG 2 28 Mar 11:00:00 11:02:36 15° 303° (WNW) 11:05:09 437.445
POLYITAN 1 28 Mar 11:05:58 11:09:41 29° 65° (ENE) 11:13:25 437.675
YUBILEINY 28 Mar 11:06:12 11:11:40 18° 311° (NW) 11:17:09 435.215
HO-68 28 Mar 11:08:11 11:13:33 23° 310° (NW) 11:18:54 435.675
FO-29 28 Mar 11:09:52 11:17:34 64° 259° (WSW) 11:24:42 435.910
PCSat 28 Mar 11:09:54 11:15:13 55° 312° (NW) 11:20:35 145.827
QB50P2 28 Mar 11:10:30 11:14:22 34° 67° (ENE) 11:18:15 145.880/145.840
DUCHIFAT 1 28 Mar 11:19:47 11:23:36 33° 67° (ENE) 11:27:26 145.980
AO-73 28 Mar 11:25:52 11:28:59 20° 298° (WNW) 11:32:03 145.935
DELFI C3 28 Mar 11:28:29 11:32:22 52° 288° (WNW) 11:36:15 145.870
BUGSAT 1 28 Mar 11:29:27 11:32:15 17° 60° (ENE) 11:35:04 437.445
NO-84 28 Mar 11:45:39 11:48:27 39° 17° (NNE) 11:51:26 435.350 FM
ESTCUBE 1 28 Mar 11:47:09 11:50:34 21° 92° (E) 11:53:59 437.505/2401.250
TIGRISAT 28 Mar 11:58:16 12:00:30 13° 273° (W) 12:02:43 435.000
NANOSAT C BR1 28 Mar 12:06:22 12:10:39 81° 256° (WSW) 12:14:57 145.865
EO-79 28 Mar 12:12:15 12:16:29 65° 258° (WSW) 12:20:47 145.935-145.965
AIST 2D 28 Mar 12:16:16 12:19:25 30° 264° (W) 12:22:34 435.315
LO-87 28 Mar 12:28:22 12:32:03 81° 284° (WNW) 12:35:41 145.935 - 145.965
POLYITAN 1 28 Mar 12:41:29 12:45:24 34° 264° (W) 12:49:20 437.675
AO-7 28 Mar 12:43:43 12:48:18 16° 34° (NNE) 12:52:53 .
QB50P2 28 Mar 12:46:28 12:50:11 29° 265° (W) 12:53:56 145.880/145.840
Oscar 19 28 Mar 12:46:37 12:51:14 35° 64° (ENE) 12:55:53 437.125/150
VELOX 1 28 Mar 12:51:00 12:54:53 28° 95° (E) 12:58:44 145.980
DUCHIFAT 1 28 Mar 12:55:34 12:59:18 29° 265° (W) 13:03:03 145.980
PCSat 28 Mar 12:56:06 12:59:50 18° 335° (NNW) 13:03:35 145.827
FO-29 28 Mar 12:59:58 13:03:47 14° 278° (W) 13:07:30 435.910
UKube-1 28 Mar 13:00:06 13:01:07 11° 87° (E) 13:02:09 .
RS-15 28 Mar 13:02:19 13:13:59 60° 116° (ESE) 13:25:59 29.354- 29.394
BUGSAT 1 28 Mar 13:02:58 13:07:10 64° 258° (WSW) 13:11:25 437.445
50 SAT 28 Mar 13:14:37 13:17:42 28° 96° (E) 13:20:46 437.505
Gurwin Techsat 1B 28 Mar 13:16:21 13:21:15 39° 65° (ENE) 13:26:09 435.225
SPROUT 28 Mar 13:20:20 13:24:31 47° 99° (E) 13:28:39 437.525
NO-84 28 Mar 13:23:05 13:26:03 46° 215° (SW) 13:29:13 435.350 FM
ESTCUBE 1 28 Mar 13:23:17 13:27:40 51° 290° (WNW) 13:32:02 437.505/2401.250
SO-50 28 Mar 13:56:13 13:58:22 13° 110° (ESE) 14:00:31 436.795
DX 1 28 Mar 13:57:27 14:01:47 53° 101° (E) 14:06:05 434.975-435.025
Oscar 19 28 Mar 14:25:47 14:30:31 37° 263° (W) 14:35:18 437.125/150
VELOX 1 28 Mar 14:27:17 14:31:25 37° 293° (WNW) 14:35:32 145.980
AO-7 28 Mar 14:31:20 14:39:09 48° 57° (ENE) 14:46:59 .
UKube-1 28 Mar 14:33:27 14:37:49 87° 98° (E) 14:42:10 .
ITAMSAT 1 28 Mar 14:37:43 14:42:30 38° 64° (ENE) 14:47:19 435.822/435.867
PCSat 28 Mar 14:43:18 14:45:31 12° 2° (N) 14:47:44 145.827
50 SAT 28 Mar 14:47:47 14:50:40 24° 294° (WNW) 14:53:33 437.505
Gurwin Techsat 1B 28 Mar 14:56:21 15:01:13 36° 264° (W) 15:06:08 435.225
SPROUT 28 Mar 14:56:51 15:00:09 22° 298° (WNW) 15:03:26 437.525
RS-15 28 Mar 15:14:40 15:26:44 61° 323° (NW) 15:39:02 29.354- 29.394
BEESAT 28 Mar 15:25:29 15:29:34 28° 94° (E) 15:33:38 436.000
MOZHAYETS 4 28 Mar 15:25:34 15:27:41 13° 87° (E) 15:29:46
SO-50 28 Mar 15:33:29 15:38:08 82° 128° (SE) 15:42:44 436.795
DX 1 28 Mar 15:34:21 15:37:38 21° 299° (WNW) 15:40:55 434.975-435.025
ITUPSAT 1 28 Mar 15:42:54 15:47:23 38° 98° (E) 15:51:49 437.325
UKube-1 28 Mar 16:11:00 16:13:14 14° 304° (NW) 16:15:27 .
ITAMSAT 1 28 Mar 16:17:11 16:21:59 36° 263° (W) 16:26:49 435.822/435.867
AO-7 28 Mar 16:23:53 16:31:55 51° 259° (WSW) 16:39:59 .
PCSat 28 Mar 16:27:06 16:31:07 20° 28° (NNE) 16:35:07 145.827
KKS-1 28 Mar 16:28:39 16:30:26 12° 87° (E) 16:32:12 437.445
O/OREOS (USA 219) 28 Mar 16:28:58 16:32:30 23° 103° (ESE) 16:36:06 437.305
DOVE 4 28 Mar 16:34:33 16:37:17 15° 54° (NE) 16:40:06 437.250
CUTE-I 28 Mar 16:44:31 16:47:42 16° 53° (NE) 16:50:53 437.470
XW-2F 28 Mar 16:55:47 16:56:48 11° 58° (ENE) 16:57:47 145.980 - 146.000
STARS 28 Mar 16:59:17 17:00:33 11° 86° (E) 17:01:49 437.465
LilacSat-2 28 Mar 17:00:10 17:01:59 13° 60° (ENE) 17:03:49 437.200
MOZHAYETS 4 28 Mar 17:00:53 17:05:28 84° 285° (WNW) 17:10:01
BEESAT 28 Mar 17:03:01 17:07:30 42° 293° (WNW) 17:11:57 436.000
YUBILEINY 28 Mar 17:12:28 17:19:04 23° 55° (NE) 17:25:39 435.215
NUDT-PHONESAT 28 Mar 17:13:44 17:15:42 14° 61° (ENE) 17:17:39 437.300
SO-50 28 Mar 17:15:20 17:19:07 24° 329° (NNW) 17:22:52 436.795
ITUPSAT 1 28 Mar 17:20:56 17:25:07 31° 296° (WNW) 17:29:16 437.325
XW-2D 28 Mar 17:21:03 17:23:52 20° 64° (ENE) 17:26:41 145.860 - 145.880
KAITUO 1B 28 Mar 17:23:12 17:25:41 17° 63° (ENE) 17:28:09 145.475/437.950
XW-2B 28 Mar 17:26:51 17:29:49 22° 65° (ENE) 17:32:48 145.730 - 145.750
RS-15 28 Mar 17:30:51 17:42:15 40° 356° (N) 17:53:36 29.354- 29.394
XW-2C 28 Mar 17:36:47 17:40:03 28° 67° (ENE) 17:43:19 145.795 - 145.815
CUBESAT XI-V 28 Mar 17:58:43 18:03:23 70° 102° (ESE) 18:08:03 437.345
KKS-1 28 Mar 18:03:07 18:07:38 88° 287° (WNW) 18:12:08 437.445
HO-68 28 Mar 18:06:20 18:12:12 29° 53° (NE) 18:18:05 435.675
O/OREOS (USA 219) 28 Mar 18:07:11 18:11:36 50° 302° (WNW) 18:16:05 437.305
DOVE 4 28 Mar 18:09:20 18:14:08 83° 74° (ENE) 18:19:16 437.250
PCSat 28 Mar 18:10:08 18:15:34 66° 51° (NE) 18:20:58 145.827
CUTE-I 28 Mar 18:21:34 18:26:57 80° 73° (ENE) 18:32:22 437.470
XW-2A 28 Mar 18:24:16 18:26:13 14° 62° (ENE) 18:28:09 145.665 - 145.685
XW-2F 28 Mar 18:26:33 18:30:20 88° 256° (WSW) 18:34:08 145.980 - 146.000
LilacSat-2 28 Mar 18:31:58 18:35:47 71° 259° (W) 18:39:36 437.200
STARS 28 Mar 18:33:07 18:37:35 87° 105° (ESE) 18:42:00 437.465
SEEDS 28 Mar 18:33:35 18:35:35 13° 58° (ENE) 18:37:35 437.485
MOZHAYETS 4 28 Mar 18:39:46 18:41:55 13° 305° (NW) 18:44:04
CUTE 1.7 + AOD 2 28 Mar 18:43:11 18:46:29 23° 63° (ENE) 18:49:47 437.475
NUDT-PHONESAT 28 Mar 18:45:28 18:49:11 63° 258° (WSW) 18:52:54 437.300
CUBEBUG 2 28 Mar 18:49:18 18:52:16 17° 58° (ENE) 18:55:12 437.445
XW-2D 28 Mar 18:54:14 18:57:49 40° 262° (W) 19:01:26 145.860 - 145.880
KAITUO 1B 28 Mar 18:55:45 18:59:23 48° 260° (W) 19:03:01 145.475/437.950
SO-50 28 Mar 18:59:06 19:01:09 13° 353° (N) 19:03:11 436.795
XW-2B 28 Mar 19:00:20 19:03:51 36° 263° (W) 19:07:24 145.730 - 145.750
XW-2C 28 Mar 19:10:55 19:14:13 28° 265° (W) 19:17:32 145.795 - 145.815
AO-73 28 Mar 19:16:06 19:16:56 10° 54° (NE) 19:17:46 145.935
